Location: Astroquest
(35.1187°N, 89.7105°W)
Time: 07:16:49
(UTC-05:00)

ISS - Visible Passes

Search period start: 23 March 2019 00:00
Search period end: 02 April 2019 00:00
Orbit: 406 x 411 km, 51.6° (Epoch: 23 March)

Date Brightness Start Highest point End Pass type
(mag) Time Alt. Az. Time Alt. Az. Time Alt. Az.
23 Mar -1.3 20:30:31 10° W 20:33:03 20° NNW 20:35:34 10° NNE visible
24 Mar -2.1 19:38:48 10° WSW 19:41:50 34° NW 19:44:53 10° NNE visible
25 Mar -0.7 20:26:55 10° NW 20:27:47 11° NNW 20:28:41 10° N visible
